Location: Champseau
(45.8333°N, 1.7667°E)
Time: 13:56:10
(UTC+00:00)

ITUPSAT 1 - Visible Passes

Search period start: 28 November 2021 00:00
Search period end: 08 December 2021 00:00
Orbit: 701 x 712 km, 98.6° (Epoch: 27 November)

Date Brightness Start Highest point End Pass type
(mag) Time Alt. Az. Time Alt. Az. Time Alt. Az.
28 Nov ? 06:12:22 10° SE 06:16:57 50° ENE 06:21:36 10° N visible
29 Nov ? 05:20:31 10° ESE 05:23:40 18° ENE 05:26:50 10° NNE visible
30 Nov ? 06:02:53 10° SE 06:07:20 41° ENE 06:11:49 10° N visible
01 Dec ? 05:11:30 10° E 05:14:08 15° ENE 05:16:46 10° NNE visible
02 Dec ? 05:53:28 10° SE 05:57:44 33° ENE 06:02:02 10° N visible
03 Dec ? 05:02:43 10° E 05:04:37 12° NE 05:06:30 10° NNE visible
03 Dec ? 06:36:50 10° SSE 06:41:37 84° ENE 06:46:27 10° NNW visible
04 Dec ? 05:44:07 10° ESE 05:48:09 28° ENE 05:52:11 10° N visible
05 Dec ? 06:27:13 10° SSE 06:31:57 68° ENE 06:36:44 10° N visible
06 Dec ? 05:34:51 10° ESE 05:38:34 23° ENE 05:42:18 10° NNE visible
07 Dec ? 06:17:40 10° SSE 06:22:19 54° ENE 06:27:01 10° N visible
